www.pogodaiklimat.ru

Погода и климат >> Архив погоды >> Россия >> Смоленская область >> Ельня


ПОГОДА в Ельне

  • Прогноз погоды в Ельне
  • Монитор погоды в Ельне

АРХИВ ПОГОДЫ в Ельне

Время (UTC), дата Ветер
(напр.,м/с)
 
Видим.   Явления Облачность Т
(С)
Тd
(С)
f
(%)
Тe
(С)
Тes
(С)
Комфортность P
(гПа)
Po
(гПа)
Тmin
(С)
Tmax
(С)
R
(мм)
R24
(мм)
S
(см)
00 18.08 С 2 4000 м слаб. ливневой дождь 10/10 600 м
[Cb cap]
+13.5 +12.7 95 +13 +13 1009.5 982.0
03 18.08 СЗ 2 3500 м дождь {ливн. осадки} 10/10 400 м
[Frnb Ns]
+13.3 +12.5 95 +12 +12 1008.6 981.2 +13.3 19
06 18.08 СЗ 2 3800 м дождь {ливн. осадки} 10/10 420 м
[Frnb Ns]
+13.7 +12.9 95 +13 +13 1008.5 981.1 +13.3 26
09 18.08 З 2 4500 м слаб. дождь 10/10 400 м
[Frnb Ns]
+14.3 +13.3 94 +14 +14 1009.1 981.8
12 18.08 СЗ 3 6000 м слаб. дождь 10/10 420 м
[Frnb Ns]
+14.7 +13.6 93 +14 +14 1010.5 983.1
15 18.08 З 2 10 км {дождь} 10/10 420 м
[Frnb Ns]
+16.7 +15.3 91 +17 +17 1011.5 984.3 14
18 18.08 З 2 10 км {дождь} 9/9 570 м
[Cb cap]
+15.9 +14.8 93 +16 +16 1012.8 985.5 +16.9 7
21 18.08 З 2 10 км 1/0
[Ac trans]
+13.8 +12.8 94 +13 +13 1014.1 986.6
00 19.08 ЮВ 1 1000 м дымка ясно +10.9 +10.2 95 +10 +10 1015.4 987.5
03 19.08 Ю 1 600 м туман 3/0
[Ci fib]
+9.3 +8.8 97 +9 +9 1017.0 989.0 +8.6
06 19.08 ЮЗ 1 20 км {туман} 1/0
[Ci fib]
+17.1 +14.1 83 +18 +24 1017.6 990.3 +8.6
09 19.08 ЮЗ 2 20 км 3/0
[Ci fib]
+22.7 +12.3 52 +25 +36 комфорт 1017.7 990.9
12 19.08 З 3 20 км 4/3 1000 м
[Cu hum Ci fib]
+25.2 +12.6 45 +27 +32 жарко 1017.7 991.1
15 19.08 Ю 2 20 км 4/1 1000 м
[Cu hum Ci sp]
+24.9 +13.7 50 +27 +29 жарко 1018.1 991.5
18 19.08 штиль 0 20 км 3/0
[Ac lent Ci fib]
+17.6 +15.9 90 +18 +18 1019.7 992.4 +25.8
21 19.08 Ю 1 10 км 8/0
[Ac lent Ci fib]
+15.6 +14.5 93 +16 +16 1020.4 992.9
00 20.08 штиль 0 10 км местами туман поземный 3/0
[Ci fib]
+13.3 +12.4 94 +13 +13 1020.9 993.1
03 20.08 штиль 0 10 км местами туман поземный 6/4 600 м
[Cb cap Ac lent Ci fib]
+12.9 +12.2 96 +12 +12 1022.0 994.2 +12.6
06 20.08 Ю 2 20 км 4/0
[Ac lent]
+19.5 +14.4 72 +22 +25 комфорт 1021.7 994.5 +12.6
09 20.08 ЮЗ 2 20 км 4/0
[Ac lent Cc]
+25.0 +17.0 61 +29 +37 душно 1021.3 994.6
12 20.08 З 3 20 км 8/6 660 м
[Cb cap Ac lent]
+26.0 +16.6 56 +30 +31 душно 1021.5 994.9
15 20.08 З 3 20 км 6/1 600 м
[Cb calv Ac lent Ci fib]
+26.0 +16.6 56 +30 +30 душно 1021.9 995.3
18 20.08 З 1 20 км 8/0
[Ac lent Ci fib]
+19.1 +17.0 88 +22 +22 комфорт 1023.4 996.2 +26.9
21 20.08 С 1 10 км местами туман поземный 1/0
[Ci fib]
+16.6 +15.8 95 +17 +17 1024.4 996.9
00 21.08 штиль 0 10 км местами туман поземный ясно +13.8 +13.1 96 +13 +13 1025.0 997.2
03 21.08 штиль 0 3200 м дымка 8/0
[Ac lent]
+13.4 +12.8 96 +13 +13 1025.5 997.6 +12.7
06 21.08 штиль 0 10 км 9/0
[Ac lent Ci fib]
+20.2 +18.2 88 +23 +26 комфорт 1024.9 997.8 +12.7
09 21.08 ЮВ 1 20 км 9/0
[Cc]
+26.2 +16.9 57 +30 +41 душно 1023.4 996.8
12 21.08 Ю 1 20 км 9/6 900 м
[Cu med, cong Ci fib]
+28.0 +17.6 53 +32 +36 душно 1021.8 995.4
15 21.08 ЮВ 1 20 км 4/0
[Ac lent Ci fib]
+27.8 +17.1 52 +32 +33 душно 1020.6 994.2
18 21.08 ЮВ 1 20 км 1/0
[Ac lent]
+21.7 +17.6 78 +26 +26 душно 1020.4 993.5 +29.0
21 21.08 штиль 0 20 км ясно +19.5 +16.6 83 +21 +21 комфорт 1020.2 993.1
00 22.08 ЮЗ 2 20 км ясно +18.4 +15.4 83 +19 +19 1019.9 992.7
03 22.08 СЗ 4 10 км 9/9 660 м
[Cb cap]
+17.7 +15.4 86 +17 +17 1021.0 993.7 +15.7
06 22.08 С 5 20 км 9/9 660 м
[Cb cap]
+16.2 +13.0 81 +15 +15 1023.5 995.9 +15.7
09 22.08 С 3 20 км 9/9 660 м
[Cb cap]
+17.2 +12.1 72 +17 +18 1025.5 997.9
12 22.08 С 4 20 км 8/8 700 м
[Cb cap]
+18.6 +11.1 62 +19 +20 1026.1 998.7
15 22.08 С 2 20 км 8/3 600 м
[Cu hum Ci fib]
+20.1 +11.0 56 +22 +23 комфорт 1026.3 999.0
18 22.08 СЗ 1 20 км 6/0
[Ac lent Ci fib]
+12.8 +11.1 89 +13 +13 1028.0 1000.0 +20.6
21 22.08 С 1 10 км местами туман поземный 3/0
[Ci fib]
+9.9 +9.1 95 +9 +9 1029.3 1000.9
00 23.08 СЗ 1 10 км местами туман поземный 9/0
[Ci fib]
+8.3 +7.7 96 +7 +7 1030.2 1001.7
03 23.08 С 1 10 км местами туман поземный 9/0
[Ac lent Ci fib]
+7.7 +7.2 97 +7 +7 1030.8 1002.2 +7.2
06 23.08 В 2 20 км 6/0
[Ci fib]
+16.4 +11.0 70 +17 +21 1030.8 1003.0 +7.2
09 23.08 СВ 2 20 км 3/3 600 м
[Cu hum Ci fib]
+19.7 +8.9 50 +21 +29 комфорт 1030.4 1002.9
12 23.08 С 2 20 км 3/0
[Ci sp]
+21.6 +9.1 45 +23 +31 комфорт 1029.1 1001.8
15 23.08 С 2 20 км ясно +21.5 +9.2 45 +23 +24 комфорт 1027.9 1000.7
18 23.08 штиль 0 10 км 3/0
[Ci fib]
+12.0 +10.8 92 +11 +11 1028.7 1000.6 +22.2
21 23.08 штиль 0 10 км местами туман поземный 1/0
[Ci fib]
+8.8 +8.1 95 +8 +8 1029.1 1000.6
00 24.08 штиль 0 10 км местами туман поземный 3/0
[Ci fib]
+7.2 +6.8 97 +6 +6 1029.1 1000.5
03 24.08 штиль 0 10 км местами туман поземный 4/0
[Ci fib]
+5.7 +5.3 97 +5 +5 1029.1 1000.3 +5.5
06 24.08 ЮЗ 1 20 км 6/0
[Ci fib]
+16.8 +11.9 73 +18 +22 1027.8 1000.2 +5.5
09 24.08 З 2 20 км 3/3 600 м
[Cu hum]
+21.4 +10.3 49 +23 +31 комфорт 1026.8 999.6
12 24.08 З 4 20 км 3/0
[Ac lent]
+22.4 +10.0 45 +24 +28 комфорт 1025.1 998.0
15 24.08 З 3 20 км 1/0
[Ac lent]
+22.4 +11.0 48 +24 +26 комфорт 1024.8 997.8
18 24.08 З 1 20 км ясно +14.3 +12.7 90 +15 +15 1025.8 998.0 +23.1
21 24.08 штиль 0 10 км ясно +11.1 +10.3 95 +10 +10 1026.1 997.9

 

Местоположение метеостанции Ельня (Смоленская область, Россия): широта 54.57 долгота 33.17 высота над уровнем моря 233 м.

В архиве по умолчанию представлена погода в Ельне за последнюю неделю. Архивные данные за месяц целиком и за предыдущие месяцы, начиная с января 2011 года, Вы можете получить, выбрав интересующий диапазон дат из раскрывающегося списка и нажав кнопку "Ввод!".


*Определитесь, кто Вы:
робот инопланетянин человек

Внимание! Время в таблицах - всемирное. Для получения местного времени необходимо прибавить поправку, которая равна 3 ч.

Смотрите также архив погоды в соседних городах и на ближайших метеорологических станциях:

Погода в Починке (Смоленская область, Россия) (51 км)
Погода в Спас-Деменске (Калужская область, Россия) (57 км)
Погода в Сафоново (Смоленская область, Россия) (59 км)
Погода в Смоленске (Смоленская область, Россия) (74 км)
Погода в Рославле (Смоленская область, Россия) (75 км)
Погода в Вязьме (Смоленская область, Россия) (103 км)
Погода в Мстиславле (Могилевская область, Беларусь) (111 км)
Погода в Мосальске (Калужская область, Россия) (120 км)
Погода в Жуковке (Брянская область, Россия) (122 км)
Погода в Демидове (Смоленская область, Россия) (131 км)

Пояснения к столбцам:

Ветер - указаны скорость ветра в м/с - средняя за 10 мин, порывы в срок и между сроками (в фигурных скобках) и направление, откуда дует ветер: С - северный, СВ - северо-восточный, В - восточный, ЮВ - юго-восточный, Ю - южный, ЮЗ - юго-западный, З - западный, СЗ - северо-западный.
Видимость - горизонтальная дальность видимости в метрах или километрах. При видимости от 1 до 10 км при отсутствии осадков обычно наблюдается дымка, при ухудшении видимости до 1 км и менее - туман. В сухую погоду видимость может ухудшаться дымом, пылью или мглою.
Явления - указаны атмосферные явления, наблюдавшиеся в срок или в последний час перед сроком; фигурными скобками обозначены явления, наблюдавшиеся между сроками (за 1-3 часа до срока); квадратными скобками обозначены град или гололедные отложения с указанием их диаметра в мм.
Облачность - указаны через наклонную черту общая и нижняя облачность в баллах и высота нижней границы облаков в метрах; квадратными скобками обозначены формы облаков: Ci - перистые, Cs - перисто-слоистые, Cc - перисто-кучевые, Ac - высококучевые, As - высокослоистые, Sc - слоисто-кучевые, Ns - слоисто-дождевые, Cu - кучевые, Cb - кучево-дождевые. Подробнее классификацию облаков см. в Атласе облаков (PDF).
T - Температура воздуха - температура, измеренная на высоте 2 м над землей.
Td - Температура точки росы - температура, при понижении до которой содержащийся в воздухе водяной пар достигнет насыщения.
f - Относительная влажность воздуха - влажноcть воздуха, измеренная на высоте 2 м над землей.
Te - Эффективная температура - температура, которую ощущает одетый по сезону человек в тени. Характеристика душности погоды. При расчете учитывается влияние влажности воздуха и скорости ветра на теплоощущения человека.
Tes - Эффективная температура на солнце - температура, которую ощущает человек, с поправкой на солнечный нагрев. Характеристика знойности погоды. Зависит от высоты солнца над горизонтом, облачности и скорости ветра. Ночью, в пасмурную погоду, а также при ветре 12 м/с и более поправка равна нулю.
P - Атмосферное давление - приведенное к уровню моря атмосферное давление.
Po - Атмосферное давление - измеренное на уровне метеостанции атмосферное давление.
Tmin - Минимальная температура - минимум температуры воздуха на высоте 2 м над землей.
Tmax - Максимальная температура - максимум температуры воздуха на высоте 2 м над землей.
R - Количество осадков - Количество выпавших осадков за период времени, мм. При наведении курсора мыши на число - период времени, за который выпало указанное количество осадков.
R24 - Количество осадков - Количество выпавших осадков за 24 часа, мм.
S - Снежный покров - Высота снежного покрова, см. При наведении курсора мыши на число - состояние снежного покрова и степень покрытия местности в баллах.